Theta_e
312 318 322 324 324 324 324 326 326 327 323 318 319 319 320 323 323 321 321 325 333 331 330 330 332 342 350 352 355 355 354 361 363 364 364 357 351 353 352 351 346 338 338 338 336 338 338 338 339 340 342 342 343 342 339 336 335 335 335 333 324 316 316 316 319 325 331 335 335 337 338 340 341 342 343 344 344 344 344 344 344 344 344 343 343 342 340 337 331 328 327 325 323 323 323 329 334
312 321 324 326 325 323 325 326 325 324 320 315 317 318 320 322 322 321 323 326 331 328 329 329 336 347 349 350 351 355 358 355 355 359 357 352 352 352 351 350 344 338 338 338 337 338 341 341 340 342 343 343 343 342 338 335 335 335 335 332 322 317 319 321 326 332 336 335 336 338 339 342 342 342 343 344 344 344 344 344 344 343 343 343 342 339 336 334 331 328 327 325 324 322 321 325 332
311 318 322 326 325 321 324 324 321 318 317 314 315 319 320 320 320 323 324 323 326 325 327 327 336 345 346 351 352 358 359 353 350 351 351 351 352 351 350 348 343 338 338 339 339 341 342 342 342 343 344 344 344 341 337 335 335 336 336 331 321 318 323 327 332 336 338 337 339 340 340 342 342 342 343 344 344 344 344 344 344 343 343 342 340 337 336 336 335 333 332 331 327 324 321 321 328
309 314 320 322 321 321 325 324 322 316 313 313 312 318 320 319 320 323 323 323 325 325 326 330 341 344 346 352 350 354 356 352 351 351 351 351 350 350 349 347 345 339 340 343 342 342 342 344 345 344 346 345 343 341 337 336 336 337 335 329 320 320 327 333 336 337 338 339 340 340 341 343 342 342 343 343 343 344 344 343 343 343 342 340 338 338 338 339 338 337 336 334 331 327 323 319 323
309 313 318 319 320 322 325 324 324 316 312 313 312 318 320 319 321 323 324 324 325 326 324 333 346 346 347 349 346 352 354 351 351 351 351 350 349 349 347 347 345 342 344 346 344 342 343 346 346 346 346 345 343 339 337 336 337 337 335 329 320 322 331 337 338 338 338 339 340 340 341 342 342 341 342 343 343 343 343 342 342 342 342 340 338 338 338 336 336 336 335 335 332 329 324 319 320
310 312 315 317 320 320 320 319 319 317 317 319 316 319 320 320 321 323 324 323 325 326 325 337 347 349 352 350 347 350 350 350 352 351 351 349 349 348 347 346 344 344 345 346 344 341 344 347 347 347 346 344 342 339 337 337 338 337 335 328 320 324 333 338 339 339 339 339 339 339 340 341 342 342 342 342 342 342 342 342 341 341 341 340 338 337 336 334 334 335 336 335 331 327 323 318 318
315 315 317 319 320 318 318 317 316 316 318 321 320 320 321 320 322 323 323 322 324 323 327 343 346 350 354 351 350 349 347 350 352 352 350 349 348 348 347 346 345 345 345 345 343 341 344 347 347 346 345 343 340 338 338 338 338 337 335 327 321 327 334 338 340 339 339 340 340 339 340 340 341 342 342 342 341 341 341 341 341 340 340 338 336 334 333 334 334 334 333 331 328 324 320 316 317
317 317 318 320 321 319 317 315 315 316 317 319 319 319 320 320 322 322 322 321 322 324 327 339 346 355 354 352 356 354 351 352 353 352 350 349 349 348 348 346 345 345 345 344 343 341 343 346 346 345 344 342 340 339 339 339 338 337 335 327 323 330 335 337 339 339 340 340 340 340 340 340 341 342 342 342 342 341 341 340 340 339 338 335 333 330 330 332 332 330 327 324 321 319 316 315 317
317 317 317 317 319 319 317 315 314 315 316 317 316 318 321 321 322 322 323 321 321 325 325 330 343 358 356 356 359 355 354 354 352 351 350 350 349 349 347 346 345 345 345 344 345 342 342 346 345 344 343 342 341 340 340 339 338 338 336 329 324 328 334 336 338 339 339 340 340 339 339 340 340 341 341 341 341 341 341 340 339 338 335 332 330 329 329 332 333 331 326 320 317 315 314 316 317
316 317 317 317 317 316 314 315 316 317 317 317 317 317 319 319 321 322 322 322 321 321 324 336 346 355 356 357 359 355 354 354 353 352 351 350 350 349 347 346 345 345 345 345 345 342 342 345 345 344 343 342 342 340 339 338 338 337 334 329 325 326 331 335 337 338 338 340 339 339 339 338 339 340 340 340 340 340 340 339 339 336 332 330 329 329 328 332 333 332 326 318 315 314 313 317 319
316 316 316 316 314 312 312 315 317 319 318 319 318 318 319 319 321 321 321 321 321 320 325 342 351 353 354 357 358 355 355 354 354 353 351 350 349 349 347 346 346 345 346 346 344 341 342 344 344 343 343 342 341 339 338 337 336 334 331 330 328 327 329 332 335 338 338 339 339 338 338 337 338 338 339 339 339 339 339 339 337 333 330 330 329 328 328 331 331 330 325 318 314 313 316 321 325
315 316 316 314 314 313 313 314 314 318 318 318 318 319 320 320 321 320 321 320 320 322 320 342 352 353 356 358 357 354 354 354 355 353 351 351 349 349 348 347 346 346 346 346 344 341 342 343 343 342 341 340 338 337 336 336 333 330 331 333 333 331 330 330 333 337 338 338 339 338 337 337 337 337 338 338 338 338 338 338 335 331 329 330 330 329 329 330 330 329 324 318 314 315 321 327 329
315 315 315 315 316 315 313 312 313 317 317 317 318 319 320 320 321 320 321 319 321 322 320 343 351 354 358 357 356 355 356 355 355 354 352 351 350 350 349 348 347 347 346 346 342 340 342 343 342 341 340 338 337 336 335 332 329 330 332 334 335 333 332 331 331 335 337 338 338 337 337 337 337 337 337 337 337 336 337 337 334 331 329 330 331 330 329 330 330 330 324 317 314 317 325 330 330
314 315 315 316 317 316 315 313 314 315 314 317 318 319 320 319 321 320 321 320 321 320 329 350 351 357 359 357 358 357 357 355 355 354 353 352 351 351 349 348 348 347 346 344 341 340 341 341 341 340 339 338 336 335 333 330 328 330 332 334 335 334 332 330 331 333 335 338 338 337 337 337 337 337 337 337 337 336 336 336 334 331 329 330 331 332 331 330 330 330 326 318 314 317 326 329 330
314 314 315 315 315 314 315 315 316 314 314 318 319 320 320 320 322 320 321 320 320 322 337 350 349 357 359 358 360 356 355 355 355 355 354 353 351 351 350 349 349 347 345 343 341 341 341 340 340 339 339 337 335 335 333 331 330 330 330 331 332 332 333 332 333 333 334 336 335 335 336 336 337 337 337 337 337 336 335 335 333 331 330 329 331 332 331 331 331 330 327 320 315 317 325 329 332
315 314 314 314 313 312 314 315 316 315 316 320 320 322 320 320 321 319 322 318 327 340 348 353 350 353 354 355 356 353 354 355 355 355 354 353 352 351 350 350 348 346 344 342 342 342 340 339 339 339 338 336 334 332 332 333 331 329 328 326 326 329 334 336 335 335 334 334 333 334 336 336 336 336 335 334 335 335 335 334 333 331 330 329 330 331 332 332 331 331 328 322 317 315 322 329 332
315 315 314 314 313 312 314 315 315 315 317 320 320 321 319 320 320 320 322 319 339 353 354 355 353 353 353 352 353 353 355 355 355 354 354 353 353 352 351 351 348 345 343 342 342 342 339 338 339 339 337 334 332 330 330 331 330 329 327 324 324 330 336 338 336 336 336 336 334 333 332 333 332 332 332 331 330 331 332 332 331 331 330 329 330 331 332 333 332 331 329 325 319 316 321 329 332
315 316 314 312 314 313 315 315 316 318 319 320 320 322 320 321 320 320 322 322 345 356 354 354 354 353 353 352 353 354 355 354 354 354 354 353 352 352 351 349 345 342 341 341 342 341 340 340 340 339 337 335 333 330 328 329 329 328 326 324 325 332 337 337 337 337 337 335 333 331 331 332 333 332 332 330 327 326 327 327 328 330 330 329 329 331 332 333 333 332 330 326 321 320 327 332 333
316 317 315 313 315 315 316 317 317 319 320 320 321 322 321 321 320 321 322 321 345 358 356 355 355 354 354 354 354 354 355 354 354 353 353 353 352 351 349 344 340 338 338 340 341 341 341 341 340 337 336 337 334 332 330 329 330 329 329 328 327 332 337 337 336 336 335 332 329 332 334 336 338 337 335 334 330 325 323 324 326 328 329 329 329 330 332 332 333 333 331 328 323 325 331 333 333
316 316 316 315 316 316 317 317 317 319 320 321 320 321 320 322 321 323 325 322 341 357 358 357 357 357 355 354 354 354 354 354 354 353 353 354 351 345 341 339 338 337 338 340 340 341 341 341 340 336 338 339 336 336 335 331 331 332 332 330 330 333 335 334 333 333 334 333 329 334 339 339 341 339 338 338 336 331 325 323 325 327 328 328 329 329 330 332 333 333 332 330 325 326 330 332 333
316 316 315 316 316 316 317 316 317 318 320 321 320 320 320 321 322 326 329 324 335 349 355 357 357 357 356 354 354 353 354 354 354 354 354 351 344 338 338 338 338 338 339 340 340 341 341 341 340 339 341 341 338 338 335 333 334 333 332 332 333 333 331 330 330 330 335 336 331 334 340 341 341 340 340 340 339 337 332 326 323 325 328 328 328 328 329 330 332 333 332 330 327 326 328 331 333
316 316 316 316 316 316 317 316 317 319 319 320 320 320 319 319 321 327 331 335 340 344 350 354 354 354 354 353 353 353 355 356 354 353 352 346 340 338 337 339 339 339 340 341 341 341 342 342 341 341 343 341 340 338 333 335 336 333 332 333 333 332 330 331 332 332 336 340 335 334 338 340 341 340 340 340 339 338 337 333 327 324 326 328 328 328 328 329 331 332 332 331 329 328 330 333 334
316 317 316 316 316 316 316 316 317 318 319 320 320 319 319 320 319 327 340 346 348 347 349 352 352 352 352 352 353 354 357 359 355 352 348 341 340 339 338 340 340 339 340 341 340 341 341 342 341 341 342 341 341 338 332 336 336 334 334 332 332 332 332 334 336 335 337 340 337 336 338 339 341 340 340 339 339 339 338 336 334 328 322 324 328 329 329 328 329 331 332 332 330 330 334 336 336
316 316 317 316 316 316 316 316 317 319 319 318 319 318 318 321 318 325 344 347 345 346 348 349 349 350 351 352 355 356 357 357 355 350 343 340 341 341 340 341 340 340 340 340 340 341 341 342 341 340 341 340 340 338 333 336 338 337 336 335 335 335 334 336 338 337 338 340 338 337 339 339 340 341 340 339 338 338 338 337 337 333 325 322 325 328 329 328 328 329 331 332 332 331 333 337 338
316 316 316 317 316 317 317 316 317 319 319 318 318 319 317 321 318 320 340 347 344 346 347 347 348 350 351 353 356 358 358 356 352 346 340 340 342 341 340 340 340 340 340 340 341 341 341 342 342 341 340 339 340 339 336 337 339 339 339 338 338 337 337 336 338 339 339 340 338 337 339 339 340 340 339 339 339 338 338 337 337 336 333 329 326 326 327 329 330 329 330 332 332 332 332 336 338
316 317 316 317 316 316 317 316 318 318 319 319 318 319 317 320 319 317 335 345 344 346 346 346 347 349 352 354 357 359 360 358 351 345 341 340 341 340 339 339 340 340 340 340 341 341 342 342 342 341 341 340 340 341 339 339 340 340 340 339 339 339 338 337 338 339 339 340 339 338 339 339 339 340 340 339 339 338 338 338 337 336 336 335 333 330 327 329 333 330 329 333 335 333 332 336 338
315 317 316 317 317 316 317 316 318 318 318 319 317 318 318 319 319 316 330 343 342 344 346 345 347 349 351 352 357 358 358 356 349 345 343 340 341 340 339 339 339 340 340 340 341 342 342 341 342 341 341 341 341 341 340 340 340 340 340 340 340 339 339 339 339 340 339 340 340 340 340 339 339 340 340 340 339 338 338 338 337 336 336 335 335 334 330 329 334 333 329 334 336 335 334 336 337
315 316 315 316 316 315 317 316 317 318 317 318 318 318 318 319 319 315 329 342 342 343 346 346 348 351 352 352 355 355 353 349 345 344 343 341 342 341 340 339 339 340 340 341 341 341 341 342 342 342 341 341 341 341 340 340 340 340 340 340 340 340 340 339 339 339 339 340 340 340 340 340 340 340 340 339 339 338 338 337 337 336 336 335 334 334 331 329 333 334 330 333 336 336 336 336 336
314 315 314 315 317 316 316 315 317 318 317 318 317 316 317 317 318 316 329 341 341 342 344 346 349 351 352 353 352 351 348 345 343 342 342 342 341 341 340 339 340 340 340 341 340 340 341 342 342 341 341 341 341 340 340 341 340 340 339 340 340 340 339 339 339 339 339 339 339 340 340 340 340 340 340 339 338 338 337 336 336 337 336 336 335 334 332 329 331 335 332 331 334 334 336 336 336
314 314 313 315 316 316 317 316 316 316 316 318 317 314 315 317 318 317 326 337 337 338 342 345 348 350 351 350 349 349 346 345 344 342 343 343 340 340 340 339 339 340 340 340 339 340 340 341 341 340 340 341 341 340 340 340 340 339 339 339 339 339 339 339 339 339 339 339 338 339 339 339 339 339 339 338 338 339 337 335 335 336 336 336 336 335 334 331 331 333 333 332 333 334 335 336 336
314 313 313 314 314 314 316 317 316 315 316 318 316 313 316 318 318 317 322 332 335 337 342 344 346 349 349 348 347 347 346 345 344 342 343 343 341 339 339 339 339 339 339 339 339 339 339 340 340 340 340 340 340 339 340 340 339 339 339 339 339 339 340 340 340 340 339 339 338 338 338 339 339 339 338 338 338 339 338 336 335 336 337 337 337 336 336 334 332 333 333 334 334 334 334 336 336
314 313 312 313 312 313 316 317 316 315 315 317 316 313 316 318 318 318 320 327 335 340 342 343 345 348 346 345 345 346 346 344 343 343 342 341 340 338 338 339 339 339 338 339 339 339 339 340 340 340 340 340 340 339 339 339 339 339 339 340 340 340 340 340 340 340 339 339 338 338 338 339 339 339 339 339 339 339 338 337 336 336 338 338 337 337 336 335 334 333 334 334 335 334 333 335 336
313 312 312 313 312 312 314 315 316 315 315 317 316 315 317 317 317 318 320 325 336 341 342 342 343 344 344 343 344 346 346 344 344 343 342 341 339 338 338 339 339 340 338 338 338 338 339 339 340 340 339 339 339 339 340 340 340 340 340 340 340 340 340 341 341 341 340 340 339 339 339 339 338 338 339 338 338 338 338 337 336 337 337 337 337 337 336 335 335 334 334 335 335 334 334 335 336
314 312 312 313 312 312 312 314 316 315 315 316 317 317 317 318 318 318 318 325 336 340 340 341 340 339 341 342 343 346 346 346 345 343 342 342 341 340 340 339 340 340 339 338 338 338 339 339 339 339 338 339 339 340 340 340 341 340 340 340 340 340 340 341 341 341 341 341 341 340 340 340 339 338 338 338 338 338 338 337 336 336 336 336 336 336 336 335 335 335 335 335 335 334 334 335 335
314 314 313 313 312 312 311 312 315 315 315 316 317 317 316 318 318 318 319 324 334 339 339 339 339 337 339 343 345 347 347 347 345 342 342 341 341 342 341 341 340 340 340 341 339 338 339 339 339 338 338 338 339 340 340 340 341 340 340 340 340 340 340 341 341 341 341 341 341 341 340 339 338 338 338 338 337 337 337 336 336 336 336 336 336 336 336 335 335 335 336 335 335 334 334 334 334
313 314 314 313 311 311 312 313 315 315 315 315 316 316 316 318 317 318 323 323 331 337 339 338 337 338 341 345 346 347 347 347 345 342 343 342 341 342 342 343 341 341 342 342 340 339 339 339 339 338 338 338 340 341 341 341 341 340 340 341 341 341 340 340 340 340 340 341 341 340 340 339 339 338 337 337 337 336 336 336 335 336 335 336 336 337 337 336 336 336 336 335 334 334 334 333 332
313 313 313 313 311 311 313 314 315 316 315 314 316 317 317 318 317 320 325 324 331 336 338 339 338 340 344 346 347 348 348 347 345 344 344 343 342 342 342 341 340 341 343 342 341 339 339 338 339 338 338 338 339 340 342 342 341 340 341 343 343 342 341 340 340 340 340 340 340 340 340 340 339 338 337 337 337 336 336 336 336 336 335 334 335 335 335 336 336 335 335 334 334 334 334 333 332
313 312 311 311 310 312 313 315 315 316 316 314 316 317 317 318 318 322 325 327 334 337 340 342 343 344 345 347 347 347 347 346 346 345 344 343 343 343 342 341 341 342 343 342 341 340 339 338 338 339 339 340 340 341 342 343 342 342 342 343 342 341 341 340 340 341 341 340 340 340 340 340 339 338 337 338 337 337 336 336 336 335 334 333 333 333 334 335 335 335 334 334 334 334 334 333 332
313 311 310 310 311 313 313 315 315 315 317 316 316 316 318 320 320 322 324 328 334 337 340 344 346 347 346 345 345 345 346 347 347 346 344 342 343 343 342 342 343 343 342 341 341 341 339 337 337 339 340 341 342 342 342 342 341 341 342 342 341 341 341 340 341 341 340 340 340 340 339 339 339 338 337 337 337 337 336 336 336 335 333 332 332 333 333 334 334 334 334 333 334 334 334 334 334
313 312 311 310 312 312 311 314 315 316 318 318 317 316 318 321 321 323 323 326 334 337 339 343 345 346 345 345 344 345 346 347 348 347 345 343 342 343 342 342 342 342 341 340 340 339 338 338 338 339 341 341 341 341 342 341 340 339 339 339 339 340 340 340 340 340 340 340 340 339 338 338 338 338 337 337 337 337 336 336 336 335 333 333 333 333 333 333 334 334 334 334 335 335 334 334 335
312 313 312 311 312 312 312 315 315 315 318 320 318 312 317 324 323 324 324 328 337 341 342 345 345 345 345 345 345 345 346 347 347 347 346 343 341 342 341 341 341 340 340 339 339 338 339 340 340 340 340 340 340 340 340 339 339 339 338 338 338 338 338 339 339 339 339 339 339 339 339 338 338 337 337 336 336 336 335 335 335 334 333 334 335 334 333 333 334 334 334 335 335 335 335 334 334
312 313 313 313 313 313 314 315 316 314 314 319 316 310 318 329 326 325 324 330 340 343 343 345 345 345 344 345 346 346 346 345 345 345 345 342 340 339 339 339 339 339 339 339 339 338 338 339 340 339 340 339 339 339 338 338 338 338 338 338 338 338 338 339 339 339 339 339 339 339 339 339 338 338 337 336 336 335 335 334 334 334 334 335 335 334 334 334 334 335 335 335 335 335 335 334 333
311 313 314 314 314 314 314 314 314 313 314 319 318 318 324 326 323 327 327 333 342 342 342 344 343 344 344 345 346 345 344 344 343 343 343 340 339 338 338 338 338 338 338 338 338 338 338 338 338 338 338 338 338 337 337 337 338 338 337 337 338 338 338 338 338 338 338 338 339 339 339 339 338 338 337 336 336 335 335 335 335 335 334 334 334 334 334 334 334 335 335 335 335 334 335 334 333
311 314 315 315 315 314 314 314 313 315 318 317 316 324 328 323 323 330 329 332 342 343 342 343 342 343 345 345 345 344 343 342 342 342 341 339 338 337 337 337 338 338 338 338 338 337 337 337 336 337 337 337 336 336 336 336 337 337 337 337 337 338 337 338 338 337 337 338 338 338 338 337 337 337 337 337 337 336 336 337 336 336 335 334 334 334 334 334 334 334 335 335 335 335 335 334 333
313 315 316 315 315 315 315 315 314 317 317 313 313 317 320 321 325 330 328 329 339 346 344 343 343 342 344 344 343 342 341 340 339 338 338 337 337 336 335 336 337 337 337 336 337 337 337 337 336 337 337 336 336 337 337 337 337 337 337 338 338 338 338 338 338 337 338 339 339 338 338 337 337 337 337 338 337 337 337 337 336 336 336 336 336 335 335 335 335 335 335 335 335 335 335 334 334
315 315 316 316 316 318 317 315 314 316 316 313 314 312 312 319 324 326 327 325 337 346 345 342 342 341 341 341 340 339 337 337 336 335 335 334 334 334 333 333 334 334 334 334 334 335 335 335 335 335 334 334 335 335 335 335 336 337 337 337 338 338 338 337 337 337 337 338 338 338 337 337 337 336 337 337 337 336 336 337 336 335 335 335 335 335 336 336 335 335 335 335 335 335 335 334 335
315 314 314 314 317 317 316 318 314 312 318 318 313 312 312 314 319 323 324 326 338 346 345 343 343 340 339 337 336 336 335 335 334 333 333 333 332 332 332 331 331 331 331 331 331 331 331 332 332 332 331 331 332 332 333 333 333 333 334 334 335 336 336 336 336 337 337 337 337 337 337 337 336 336 336 336 337 336 336 336 336 336 335 335 335 335 335 336 335 335 335 335 335 335 335 335 335
315 315 313 313 316 315 312 315 315 315 324 321 312 314 311 311 324 335 334 334 341 344 344 344 342 339 337 335 334 334 333 333 333 332 331 331 331 331 330 331 330 329 329 329 329 329 329 329 330 330 330 329 330 330 330 331 331 331 332 333 333 333 333 334 334 335 336 336 337 336 336 336 336 336 335 335 336 336 336 336 336 336 336 335 335 334 334 335 335 335 334 334 334 335 334 334 334
314 314 314 313 315 313 311 314 317 319 323 319 314 313 311 320 337 343 341 340 341 342 341 341 339 337 335 334 333 332 332 332 331 331 330 330 330 329 329 329 328 328 328 328 328 328 328 328 328 329 328 328 329 328 329 330 330 330 330 331 331 332 332 332 333 333 333 334 334 335 335 335 335 336 336 335 335 335 335 335 334 334 335 335 335 334 334 333 333 335 333 331 332 334 333 332 333
312 312 314 316 315 313 314 317 317 319 318 315 315 311 316 335 344 340 341 341 339 339 337 336 335 334 333 332 331 331 330 330 330 330 329 329 328 328 328 328 327 327 327 326 326 327 327 327 327 327 327 327 327 328 328 328 328 328 329 330 330 330 330 330 330 331 331 331 332 333 333 334 334 335 335 335 335 335 335 335 334 333 334 334 334 334 333 332 332 333 332 330 330 332 332 332 333
312 313 315 316 316 315 318 318 317 320 318 312 312 316 327 343 343 337 338 336 334 334 332 332 331 330 330 329 329 329 329 329 329 329 328 328 327 327 327 326 326 326 325 325 325 325 326 326 325 325 326 326 326 326 327 327 327 328 328 328 328 328 328 328 328 329 329 330 330 331 331 333 333 334 334 334 334 335 335 335 335 335 334 334 334 333 332 332 331 331 331 331 331 331 331 331 333
314 314 313 314 315 317 320 318 317 322 320 316 324 333 337 341 338 334 334 332 331 331 330 330 329 328 328 328 328 328 328 328 328 327 327 326 326 326 325 325 325 324 324 324 324 324 324 324 324 325 325 325 325 325 326 326 326 327 326 326 326 326 326 326 327 328 328 329 329 330 331 332 332 332 333 333 333 334 334 334 335 335 335 334 334 333 332 331 330 330 330 330 330 331 330 330 331
316 313 312 314 315 316 319 317 318 323 322 324 336 342 340 340 338 334 332 332 331 330 329 329 329 328 328 328 329 328 327 328 326 326 326 325 325 324 324 324 324 324 324 324 324 323 323 323 324 324 323 324 324 324 324 324 325 325 324 324 324 325 326 326 327 327 327 327 328 329 330 330 331 331 332 332 333 333 333 334 334 334 334 334 334 333 333 331 329 330 331 330 330 330 329 329 330
314 312 312 315 314 316 321 319 318 320 320 327 340 343 341 343 342 336 333 333 333 330 330 329 328 328 328 328 328 327 327 327 325 325 324 323 324 323 323 323 323 323 323 323 323 323 323 323 323 323 323 323 323 323 323 323 323 323 323 323 323 324 325 325 325 325 325 325 326 327 327 327 329 330 332 332 332 332 333 333 334 333 334 334 333 333 333 332 330 331 331 330 329 329 328 328 329
313 313 313 316 316 315 319 319 317 319 319 327 341 343 340 342 340 338 336 334 333 331 329 329 328 328 328 327 327 326 326 325 324 323 323 322 323 322 322 322 322 323 323 322 322 322 322 322 322 322 322 321 321 322 322 322 322 322 322 323 323 323 323 323 324 324 323 324 324 324 325 325 326 327 329 331 331 332 332 333 333 333 333 333 333 333 332 331 331 331 331 330 330 329 329 329 329
314 314 312 316 319 317 317 315 317 321 319 327 340 341 340 342 337 336 336 333 332 331 329 329 327 327 327 326 326 326 324 323 322 322 322 322 321 321 322 322 321 322 322 322 321 321 321 321 321 321 321 320 321 321 321 322 322 321 322 322 322 322 322 322 322 322 322 323 323 323 324 325 326 326 327 329 330 330 331 332 333 333 332 333 333 331 331 331 331 331 331 331 331 330 329 330 330
313 312 312 312 313 316 318 315 315 319 320 328 341 342 341 340 335 334 335 332 331 330 328 327 326 326 326 326 325 324 322 321 321 321 323 322 321 321 321 321 321 321 321 321 321 321 321 321 321 320 320 320 320 320 320 321 321 321 321 321 320 320 321 321 321 322 322 323 323 323 323 323 325 326 326 327 328 329 330 331 331 332 332 332 332 331 330 330 330 330 330 331 331 330 330 331 330
312 313 313 314 314 314 316 316 313 313 317 327 340 344 340 336 334 333 334 331 329 328 326 326 326 326 325 324 322 321 321 321 322 322 323 321 321 321 320 320 320 320 321 321 320 320 320 320 320 319 319 319 319 319 320 320 320 321 320 320 320 319 320 320 321 322 323 323 323 321 320 321 321 322 324 325 327 328 330 331 330 331 331 331 331 331 330 330 330 330 330 330 330 330 330 331 331
Wind_Speed
5 5 6 9 11 11 9 2 1 2 1 2 4 4 8 8 7 10 12 3 6 3 4 5 7 10 9 11 13 12 7 2 0 2 2 6 20 28 28 29 30 31 31 28 27 24 22 20 19 19 19 20 19 19 19 18 16 14 13 12 13 13 16 19 20 20 20 21 20 19 19 17 16 15 16 17 17 17 17 17 16 16 15 15 14 13 13 13 14 13 14 14 14 14 15 17 19
6 8 8 9 12 6 3 1 1 3 0 4 5 6 10 7 5 5 5 5 4 1 4 6 12 16 17 15 13 12 9 6 4 4 6 19 25 25 29 29 30 31 30 28 27 25 23 21 19 19 19 19 19 20 19 18 16 13 13 13 13 15 17 19 20 21 20 20 19 19 19 17 15 15 16 17 17 17 17 17 16 15 15 14 13 13 13 13 12 12 12 12 12 13 13 15 18
8 11 8 7 7 3 2 1 2 2 3 5 5 7 10 8 5 0 5 5 2 2 4 6 12 12 14 12 8 8 5 4 8 7 9 21 18 19 29 28 29 29 28 28 26 25 23 21 19 19 19 19 19 20 19 17 15 13 12 13 14 15 16 18 19 20 18 17 17 18 18 16 15 15 16 18 18 17 16 16 15 14 14 13 12 13 12 11 11 10 9 9 10 10 11 13 16
9 8 8 6 2 2 1 1 3 3 4 4 5 9 10 9 7 1 3 2 1 3 2 6 9 7 14 14 8 8 7 5 7 7 7 16 19 24 29 26 25 26 26 26 24 24 23 20 19 19 19 19 19 20 19 17 14 12 12 13 13 15 15 16 18 18 16 16 16 17 17 15 15 15 15 17 18 16 15 14 14 14 13 12 12 12 11 10 9 8 8 8 8 8 9 11 14
9 7 7 4 1 1 1 1 2 4 5 4 4 9 11 10 5 1 2 2 3 5 4 6 6 6 11 9 5 5 7 7 8 9 10 17 29 31 28 24 24 24 24 22 21 22 21 20 19 19 19 19 20 19 18 16 13 12 12 13 13 15 15 15 16 16 15 16 17 18 16 15 14 14 14 15 16 15 14 13 13 12 11 10 10 9 8 8 8 8 7 6 6 7 8 9 14
8 7 7 5 2 2 0 2 4 5 6 6 5 8 12 11 4 3 2 1 6 5 5 7 8 8 8 4 4 3 10 10 8 12 16 24 32 31 27 26 24 25 24 20 19 20 20 20 19 19 19 19 19 19 17 14 12 11 12 12 12 15 16 15 15 15 15 16 16 16 16 15 14 13 13 13 14 13 13 12 12 10 10 8 7 7 7 8 8 8 6 5 5 6 7 9 15
6 5 3 2 2 2 1 4 5 5 5 7 7 8 13 10 2 2 1 2 4 3 5 8 11 12 6 3 4 5 10 14 11 15 24 29 30 27 24 24 24 25 23 20 16 17 19 19 20 19 18 19 19 18 16 13 12 11 11 12 13 15 17 15 14 14 15 16 15 15 15 14 13 13 12 12 12 11 12 11 10 9 8 6 5 5 6 8 8 7 5 4 5 6 7 10 15
7 4 1 2 1 2 3 4 5 5 6 9 10 10 16 10 1 1 1 1 1 2 5 9 13 11 5 6 4 7 15 20 20 25 31 31 28 23 21 22 24 25 23 19 15 15 18 20 20 19 19 18 18 17 14 12 11 10 10 12 13 15 17 15 15 16 15 15 15 15 15 14 13 12 11 10 10 10 10 9 8 7 6 6 5 5 7 8 8 7 6 6 6 7 9 12 15
7 4 1 1 2 3 3 4 6 7 9 11 14 14 18 12 3 3 3 1 1 3 4 7 11 10 6 10 7 5 14 23 28 29 29 27 26 23 22 23 25 26 22 19 16 14 18 20 20 19 18 17 16 15 13 12 11 10 10 11 13 15 16 15 16 16 15 14 14 14 13 13 12 11 10 9 9 9 8 7 6 6 5 5 5 6 7 8 8 8 8 8 8 8 11 14 15
3 4 2 1 3 4 4 4 5 7 10 13 16 16 19 13 4 4 3 2 2 3 2 8 13 13 11 10 6 3 12 23 28 26 26 25 22 21 21 22 26 27 23 20 16 16 20 20 19 18 17 17 16 14 12 12 11 11 10 11 13 14 15 15 16 15 14 12 12 13 13 12 11 10 9 8 7 7 6 5 5 5 5 5 5 6 7 7 8 8 8 8 8 10 14 16 16
2 4 2 2 3 4 5 5 6 7 10 12 13 16 17 10 5 3 2 4 2 4 3 12 13 13 12 7 4 7 17 23 24 24 25 25 21 20 21 22 25 25 23 20 17 20 23 20 19 18 17 17 15 13 13 13 12 11 11 11 12 13 13 13 15 15 14 11 11 12 12 12 11 9 8 7 6 5 4 3 4 5 5 5 5 6 6 7 8 8 8 8 8 12 16 17 17
3 4 2 2 3 4 5 5 7 9 11 10 11 14 11 8 7 5 3 3 2 4 7 9 10 10 11 5 3 9 17 19 21 23 24 24 21 20 20 23 25 24 23 20 19 22 23 20 19 18 17 16 14 14 14 13 13 12 12 12 12 12 12 12 14 15 14 11 10 11 12 11 10 9 8 7 6 4 4 3 4 6 6 6 5 5 5 6 7 8 7 8 8 13 17 18 16
4 4 2 3 4 4 6 6 8 9 9 8 9 8 4 7 6 6 3 1 1 4 5 11 14 10 8 5 5 7 10 16 22 23 23 23 20 17 19 25 25 24 23 21 22 24 23 21 20 18 16 16 15 15 14 14 13 13 12 13 12 12 12 13 15 16 15 12 10 10 11 10 9 9 9 7 6 5 4 4 4 6 6 6 5 5 4 4 5 6 7 7 8 13 17 17 15
4 3 3 3 4 4 5 6 7 7 7 7 7 3 4 5 5 6 5 4 4 5 3 13 16 13 7 5 5 4 8 19 23 23 22 22 19 17 21 25 24 24 23 22 24 26 24 21 20 18 17 17 17 16 15 14 13 13 13 14 13 12 13 14 15 15 16 14 11 10 10 9 9 9 9 8 7 6 6 5 5 7 7 6 5 5 4 4 4 5 6 6 8 12 16 16 14
6 2 2 3 4 4 4 6 6 7 6 5 5 3 4 3 5 6 5 3 4 4 7 9 7 11 9 8 6 7 13 23 23 22 22 21 19 19 23 25 24 24 22 23 26 26 24 21 20 20 19 19 19 17 16 14 14 14 14 15 14 14 15 15 14 14 15 14 11 10 10 9 9 10 10 9 8 7 7 7 7 9 8 7 6 5 4 3 3 4 6 6 7 11 14 15 13
5 2 2 3 4 5 4 6 6 7 6 5 4 1 2 3 4 3 2 5 2 6 9 6 3 6 14 10 10 15 22 26 23 23 23 21 20 22 26 25 25 25 25 26 26 25 22 20 21 22 21 20 19 18 17 15 14 14 14 15 15 15 16 15 13 12 13 12 10 10 11 11 10 10 10 9 9 8 8 9 9 10 10 9 7 6 5 4 3 4 5 5 6 9 13 13 13
4 3 3 4 5 5 5 6 5 4 4 4 5 2 2 1 2 2 2 2 9 11 11 8 6 6 12 11 18 26 27 26 25 24 23 21 20 22 24 24 24 24 26 28 26 21 20 22 24 24 22 20 19 18 19 17 16 16 15 15 15 16 16 15 13 11 11 10 9 10 11 11 9 8 7 8 8 9 10 11 12 12 12 11 9 8 6 5 4 4 5 6 7 9 12 14 13
4 3 4 5 5 5 7 8 7 3 4 4 7 6 1 1 2 4 2 2 12 14 10 12 13 13 16 20 26 28 25 25 24 23 20 19 18 18 19 19 19 22 25 25 26 22 20 23 25 24 22 21 20 19 20 20 18 17 16 15 15 16 16 14 12 11 11 10 10 10 11 10 9 9 7 7 8 8 11 12 15 14 13 13 12 10 8 7 5 5 5 6 8 12 15 15 13
4 3 4 5 5 6 9 11 7 3 3 5 6 8 4 1 3 3 4 4 13 14 8 13 15 16 18 21 24 23 22 21 20 19 18 17 15 14 15 20 25 28 25 21 25 23 22 26 25 24 23 23 22 20 21 20 19 17 16 15 15 15 15 13 11 11 10 10 13 13 11 10 9 9 8 7 7 7 9 12 15 17 16 14 13 12 10 8 7 7 6 6 10 14 16 14 13
5 4 4 5 6 9 14 14 8 4 2 4 4 7 7 7 6 2 5 4 10 14 10 11 13 14 14 15 18 19 18 17 15 17 17 15 16 22 27 29 29 25 23 22 25 25 28 30 26 24 25 24 23 21 20 20 18 16 16 14 14 15 14 13 12 12 12 10 14 14 11 10 10 10 9 8 8 6 7 10 13 17 18 16 14 13 11 9 8 8 8 8 10 14 16 14 13
4 5 5 5 6 10 15 14 9 6 2 4 3 6 6 8 7 1 4 4 4 9 13 15 16 16 15 14 14 15 14 12 12 14 15 16 24 31 29 29 28 24 25 27 28 29 32 31 28 26 26 24 22 21 20 20 19 16 16 14 14 16 16 15 15 15 15 12 13 14 11 11 12 12 12 12 13 9 7 9 11 14 17 17 16 14 12 11 9 9 9 10 11 13 15 13 11
4 6 8 9 9 10 12 12 11 8 0 4 1 4 4 6 7 5 2 1 3 5 12 17 20 18 16 14 13 13 10 9 9 9 14 22 25 25 19 21 24 24 29 30 31 33 33 33 30 29 29 27 24 22 22 22 20 18 19 18 17 19 18 18 17 17 18 15 14 14 13 13 13 12 13 14 15 12 9 8 9 12 15 16 17 16 14 12 10 10 10 12 12 13 13 11 10
5 5 7 10 13 12 11 10 10 6 4 4 2 3 6 8 7 5 8 5 2 10 13 15 17 18 18 15 13 12 9 8 8 7 19 26 25 23 19 21 23 24 27 27 30 34 35 34 33 32 32 31 28 25 25 24 22 20 20 21 21 20 19 19 19 17 18 18 17 16 15 15 14 12 14 15 15 13 10 9 8 9 13 15 16 16 15 14 12 11 11 12 13 14 12 11 10
7 5 5 9 12 12 11 11 8 4 6 4 5 7 7 6 6 4 10 9 9 15 15 15 15 16 17 15 12 11 10 9 9 15 26 28 25 24 21 21 22 22 23 23 28 34 35 34 34 33 32 32 30 27 26 25 23 22 20 21 20 19 19 19 19 19 18 19 19 18 17 16 15 13 14 16 16 15 12 11 9 8 10 13 15 16 16 14 14 12 12 12 13 15 13 11 10
8 6 6 8 10 9 9 10 7 2 4 3 5 8 7 5 7 3 8 12 14 14 14 15 15 15 14 12 11 10 10 9 13 24 27 27 26 23 21 21 21 22 22 23 28 32 33 32 32 32 31 31 30 27 26 26 23 22 22 21 19 19 19 19 19 19 18 19 19 18 18 17 16 15 15 16 17 18 16 14 13 11 11 12 13 16 16 14 14 13 13 12 12 14 14 13 12
7 8 7 9 10 11 9 9 8 4 4 3 3 8 7 6 7 2 8 13 14 15 15 14 14 14 11 10 10 9 9 9 15 23 22 24 25 24 22 21 21 23 24 26 28 31 32 32 32 30 29 28 27 27 26 26 23 22 23 20 18 18 18 17 17 18 18 18 19 19 18 18 17 16 16 16 17 19 18 17 16 15 14 13 14 15 16 16 14 14 14 13 12 14 15 15 15
7 10 10 11 11 11 9 8 7 5 5 7 5 7 6 6 5 3 7 14 14 15 14 12 12 12 11 10 8 8 9 10 16 21 18 17 20 24 22 20 22 24 25 28 28 30 30 29 30 28 27 25 23 23 24 24 22 21 21 19 17 16 15 15 15 17 18 17 18 20 20 20 18 17 17 16 17 18 19 19 18 18 17 17 17 16 18 20 17 15 16 15 14 15 17 17 17
8 9 9 10 11 11 10 8 6 4 2 6 3 5 6 6 6 6 6 14 15 15 15 13 12 10 10 9 8 8 9 13 20 19 12 11 16 21 22 20 22 22 24 28 28 28 26 25 26 25 23 22 19 19 22 21 19 18 17 17 16 14 14 15 15 16 17 16 16 19 19 20 18 17 17 17 18 19 20 20 19 20 20 18 18 17 19 21 18 17 19 18 16 16 17 18 18
9 9 7 8 8 8 9 8 6 4 3 6 3 5 7 6 8 9 9 15 15 16 15 14 12 10 9 7 8 9 10 15 18 15 12 13 16 19 19 18 19 20 21 24 26 26 24 23 23 21 19 19 16 17 20 19 17 16 14 14 14 14 14 14 14 14 15 15 15 17 17 18 17 17 17 17 18 18 18 20 20 21 20 19 19 19 20 21 18 18 20 20 18 16 16 17 17
6 6 4 5 4 5 7 7 7 6 5 8 6 3 7 8 9 10 10 15 15 16 15 14 12 10 8 7 9 9 10 12 12 13 15 14 14 16 17 16 17 19 20 22 24 25 24 22 21 19 18 18 16 16 19 17 16 16 15 13 13 14 14 13 13 13 13 14 14 16 16 16 16 16 16 17 18 18 17 18 19 20 20 20 20 20 20 21 19 17 18 19 18 19 17 17 18
3 5 4 3 3 4 5 7 8 7 5 8 8 4 7 7 10 12 10 15 17 15 14 14 12 10 8 8 10 9 8 10 12 15 15 14 14 15 15 16 16 17 19 22 23 23 24 22 20 18 17 18 16 16 19 17 16 16 15 14 13 13 13 12 12 12 12 12 13 15 15 14 14 14 14 15 16 18 17 17 17 18 18 18 19 20 20 20 19 17 16 17 18 19 17 16 17
3 3 4 3 3 3 5 7 10 9 6 8 9 4 7 8 10 12 8 12 17 16 14 14 13 12 10 9 10 9 7 10 12 14 14 15 14 12 13 16 16 15 18 20 20 20 22 21 18 17 17 18 17 16 18 18 16 16 14 13 12 12 11 11 11 11 11 12 13 13 13 13 13 13 13 14 15 16 17 17 19 19 16 16 16 17 19 19 18 17 16 15 16 19 18 17 17
2 4 3 3 4 3 5 7 10 12 7 7 9 4 5 7 9 13 9 10 17 17 14 15 14 13 12 10 9 8 7 8 8 10 14 16 14 12 13 16 15 13 17 19 18 19 20 19 18 17 17 18 17 17 18 18 16 15 14 13 12 12 11 11 11 11 11 11 12 12 12 12 13 13 13 15 16 17 18 17 18 18 16 15 16 16 18 19 19 18 17 15 15 16 17 17 17
3 3 4 4 5 5 6 7 8 14 10 7 8 5 7 8 9 12 10 12 17 16 14 15 14 12 12 11 10 8 8 7 6 9 14 16 15 14 14 14 13 13 16 17 17 18 19 18 16 16 15 16 17 18 18 17 16 14 13 13 12 12 12 12 12 11 11 10 11 11 11 11 11 13 14 16 18 19 18 16 16 16 15 15 16 16 17 18 19 19 18 17 17 16 15 14 14
4 4 4 5 6 5 8 8 6 14 13 9 7 8 12 11 9 8 9 15 16 16 14 13 13 12 13 12 10 9 9 7 6 12 16 17 15 15 15 14 14 16 17 15 15 17 18 17 15 14 14 17 18 18 16 14 14 14 12 12 12 12 12 13 14 13 12 11 12 13 12 11 11 12 14 15 17 18 18 16 15 15 15 15 15 15 16 18 19 18 18 18 18 18 18 15 11
8 7 5 6 6 7 10 10 9 15 13 10 8 10 13 13 10 6 6 14 15 16 13 10 10 11 12 11 10 9 9 7 9 15 18 17 15 16 17 17 17 18 18 16 16 16 17 17 15 14 15 18 18 16 13 12 13 13 13 12 11 11 11 12 14 14 13 12 13 14 15 14 12 12 13 13 15 16 15 16 16 16 16 15 15 16 17 18 18 17 18 18 18 19 20 16 11
12 8 6 8 8 8 11 11 11 16 11 10 12 11 12 14 11 5 5 9 14 17 14 10 10 10 11 12 11 10 9 8 11 16 18 18 18 17 17 18 19 19 17 16 16 17 17 17 16 15 16 17 17 16 13 11 12 12 12 12 12 11 10 11 12 12 13 13 13 14 15 14 13 13 13 13 14 14 15 16 17 19 18 17 18 18 17 17 17 17 18 18 18 19 18 17 15
13 9 6 7 7 8 13 11 12 16 9 9 13 10 11 13 9 6 6 7 15 18 15 13 13 13 11 13 12 10 8 7 10 13 16 19 18 17 18 18 18 17 16 16 17 17 17 16 16 16 15 13 13 13 11 11 11 11 11 11 10 8 8 8 9 10 11 12 12 13 14 13 12 12 12 14 14 14 15 17 19 20 20 19 18 18 17 17 18 18 19 19 18 18 16 16 18
11 8 5 6 6 7 12 10 14 16 7 8 13 9 9 11 8 9 8 7 14 17 17 16 16 15 12 12 12 10 9 8 7 9 13 17 18 18 18 17 17 17 16 16 18 18 17 15 15 15 13 12 11 11 10 10 9 9 9 8 7 6 5 6 6 7 9 11 12 12 12 13 12 12 12 14 15 16 17 18 19 20 19 19 18 18 18 18 19 19 20 20 18 17 15 15 18
8 7 5 6 7 7 8 6 15 16 7 7 12 8 5 6 5 10 12 9 10 15 18 15 15 15 14 13 12 11 11 10 8 9 10 14 17 18 17 17 18 18 17 18 18 18 17 15 14 13 12 11 11 11 10 8 8 7 6 5 5 5 5 5 6 6 7 9 10 10 11 12 13 12 13 13 15 16 17 17 18 19 20 18 18 18 18 19 19 20 21 21 19 16 15 16 18
9 9 6 7 10 11 9 5 14 14 5 5 9 5 3 4 2 7 10 11 13 15 17 15 13 13 13 12 11 11 10 9 9 9 9 11 15 17 19 20 19 18 18 17 17 16 15 14 13 11 11 10 10 10 8 7 7 6 5 4 3 4 5 7 7 7 8 10 10 10 10 11 12 12 13 14 15 15 16 16 17 19 20 19 18 18 18 19 20 21 21 22 22 19 18 18 18
9 10 10 12 12 12 11 3 9 8 4 4 7 5 5 3 6 7 6 12 14 14 17 16 13 12 12 11 10 9 9 8 8 9 9 11 15 18 20 20 19 18 17 16 15 14 13 13 12 11 10 9 9 8 7 7 6 5 3 3 3 4 6 7 7 7 8 10 11 11 11 11 12 12 13 14 15 16 16 16 17 18 19 19 19 19 19 19 21 22 22 23 24 23 20 18 18
7 8 10 14 14 13 14 6 4 5 5 6 6 7 3 3 2 5 7 14 14 14 17 16 13 12 11 10 9 9 9 8 8 8 9 11 15 17 18 18 18 17 15 14 13 12 11 12 12 11 10 9 7 7 6 6 5 4 2 2 2 3 5 6 7 7 7 8 10 11 12 12 13 14 13 12 13 15 16 17 17 19 19 19 20 21 21 22 22 23 23 24 25 25 22 19 19
6 7 10 12 13 14 14 9 4 5 5 6 5 7 4 1 3 4 10 17 16 13 15 14 12 11 10 10 10 10 9 8 8 8 8 10 13 15 17 18 17 15 14 13 11 10 10 9 10 9 8 7 6 5 5 4 3 3 2 1 2 4 5 6 7 8 7 7 8 11 12 12 13 14 14 13 12 14 15 17 19 19 20 20 21 23 24 24 23 24 23 24 24 25 25 24 22
6 7 10 11 11 12 10 7 5 6 6 5 5 5 5 2 5 3 8 13 15 13 13 13 12 11 10 10 10 10 10 9 9 9 8 10 14 17 20 20 19 17 16 15 13 11 10 9 9 10 8 7 7 6 6 4 2 1 1 3 4 5 7 8 9 8 7 6 7 9 10 11 11 13 15 15 14 15 15 17 18 19 20 21 22 23 24 23 23 24 24 25 25 26 26 26 25
6 8 11 9 8 8 5 5 4 3 6 5 7 6 5 2 5 5 6 8 12 11 10 12 12 12 11 10 11 11 10 10 9 9 10 13 15 18 21 21 20 18 16 16 15 14 14 12 11 11 11 9 8 7 7 7 6 5 4 5 6 7 8 9 9 9 9 8 8 9 10 11 10 11 13 14 15 16 16 17 17 17 19 21 22 22 22 22 23 24 25 26 27 27 27 27 27
7 9 10 7 6 4 2 3 2 2 2 6 8 9 7 3 5 6 4 8 16 13 10 12 12 12 11 9 11 11 9 9 8 9 11 14 16 18 21 21 19 18 16 14 14 13 14 14 12 11 11 10 9 8 7 8 9 9 9 8 9 9 9 10 10 10 10 10 9 9 10 11 11 11 12 12 13 14 15 16 17 18 20 22 22 21 22 21 22 24 25 27 27 27 27 27 29
7 8 7 3 5 2 2 0 2 2 3 6 7 9 7 4 4 4 2 11 22 18 15 17 14 13 12 10 10 10 9 9 8 8 9 11 13 16 18 17 17 17 16 15 14 12 12 12 12 12 10 10 10 10 9 8 9 10 10 10 10 10 10 11 11 11 11 10 9 9 10 11 12 12 12 12 12 13 15 16 18 19 20 21 21 22 23 22 22 22 24 26 27 28 27 27 28
6 6 5 4 3 2 3 2 2 3 4 6 7 7 4 3 3 5 3 13 17 15 16 18 17 14 13 11 10 9 8 9 8 6 7 7 8 11 14 15 15 17 16 14 13 12 12 11 12 12 11 10 10 10 9 9 10 10 11 12 11 11 11 11 11 11 12 12 11 12 12 12 13 13 13 13 13 14 15 17 18 19 19 19 19 21 22 21 21 21 21 23 26 27 27 27 27
8 7 5 6 4 3 4 3 2 3 4 7 10 8 3 3 1 4 8 14 12 13 14 14 16 15 13 11 10 9 8 8 7 6 6 6 7 11 13 14 15 16 15 13 12 12 11 11 13 13 12 11 11 11 11 10 10 11 11 11 11 11 11 11 11 12 13 13 14 14 14 14 14 15 15 14 14 15 15 16 17 18 18 19 19 21 21 20 20 22 22 23 24 26 26 26 27
7 8 5 5 4 4 3 3 3 4 5 7 9 6 2 3 3 5 8 14 13 14 13 13 14 13 12 11 10 10 9 7 6 6 7 7 9 12 13 13 15 15 13 12 11 11 10 10 11 12 11 11 12 12 11 11 11 10 10 10 10 11 11 11 12 13 13 14 15 15 16 16 15 16 16 16 16 16 17 17 17 17 18 19 20 21 21 21 21 21 21 21 23 24 25 26 27
5 6 6 5 4 4 3 4 5 4 4 4 4 2 1 3 5 6 9 13 13 14 14 15 14 12 11 11 9 9 8 7 7 6 7 7 9 13 13 13 13 12 11 9 8 8 8 8 9 10 11 12 12 12 12 12 13 12 12 12 12 11 11 12 13 14 15 15 15 16 17 16 16 16 16 16 16 17 18 18 17 18 18 18 19 20 19 19 20 20 20 21 22 22 23 26 28
4 5 6 6 5 4 3 3 2 3 2 1 1 3 4 3 3 5 8 11 12 13 13 14 14 12 11 9 8 9 8 7 7 6 6 6 10 12 12 11 10 9 9 8 6 6 6 6 8 9 11 12 12 13 13 13 13 14 14 13 13 12 12 14 15 15 16 15 14 15 17 17 17 17 16 16 16 17 18 18 19 19 19 17 16 16 17 17 15 17 19 19 20 21 23 27 29
4 5 5 4 4 4 3 3 1 3 2 1 2 5 6 4 2 4 7 8 10 12 13 13 13 12 11 9 9 9 8 8 7 7 7 7 9 10 11 11 9 8 8 7 6 6 6 6 7 9 11 12 12 13 14 12 12 14 14 14 13 14 15 16 16 16 17 16 15 17 18 18 18 18 17 17 17 17 18 18 19 20 20 19 16 14 16 17 16 17 18 17 18 20 24 27 28
5 5 5 5 5 5 3 3 3 4 3 1 3 4 5 4 4 9 12 11 11 12 13 13 12 11 10 10 10 10 9 8 8 7 6 6 8 10 12 11 7 7 7 6 6 7 8 7 8 9 11 13 12 12 12 11 11 13 14 14 14 15 16 17 17 17 17 17 18 18 18 19 18 18 18 18 18 18 18 18 17 18 18 19 17 15 17 17 17 17 16 16 19 22 24 26 27
7 4 4 5 4 4 4 3 4 4 3 3 4 2 4 3 5 11 14 14 15 13 13 13 12 11 10 9 10 9 8 8 7 6 4 6 9 10 10 10 7 6 6 6 8 9 8 7 9 12 13 13 11 11 11 10 12 14 14 14 15 15 16 16 15 15 17 18 19 20 21 21 21 21 20 20 20 20 19 18 18 17 17 18 18 18 18 16 16 16 16 18 21 20 21 24 25
7 5 6 7 4 4 3 2 3 5 3 3 4 2 4 2 4 11 12 11 13 13 13 12 11 11 10 9 9 8 8 8 7 6 5 7 11 10 10 9 7 5 6 8 8 7 7 9 13 14 13 11 11 12 11 11 12 14 15 15 16 16 15 15 15 17 18 18 20 22 23 23 23 23 23 22 22 21 19 18 19 18 16 17 18 18 18 16 16 17 18 19 20 20 22 24 24
7 4 5 6 5 5 3 2 3 4 4 5 5 4 3 3 2 7 10 10 10 11 12 11 10 11 10 9 10 10 8 7 6 5 5 8 11 12 11 9 6 6 8 9 9 10 11 13 16 15 13 12 14 15 12 11 13 15 17 18 18 17 16 17 20 22 21 19 20 22 23 23 23 23 23 22 22 22 20 19 19 18 17 18 19 18 18 18 18 18 18 18 20 21 23 23 23
Wind_Direction
283 294 313 328 323 326 315 282 85 295 130 249 256 265 265 252 263 287 289 338 61 3 36 61 67 81 94 102 109 83 54 30 191 147 154 142 123 133 147 148 150 153 155 156 156 158 164 168 170 171 170 167 164 161 159 159 157 151 136 123 117 115 114 117 119 117 117 115 112 111 107 102 98 100 103 104 105 105 105 104 104 103 102 100 98 95 94 97 99 99 97 95 95 97 103 108 111
257 277 299 315 304 309 302 196 119 279 236 266 257 252 264 283 299 310 345 48 62 69 57 65 86 96 103 110 111 82 51 30 78 101 105 123 121 129 143 148 152 154 155 154 155 157 161 166 168 169 169 165 162 161 159 159 157 150 134 122 120 119 119 118 116 115 114 112 112 111 106 100 97 100 106 108 105 103 104 104 103 102 101 97 94 92 92 93 94 95 94 93 93 96 104 113 118
259 276 295 314 288 230 304 323 174 232 239 250 261 264 275 297 282 252 81 85 45 92 92 78 86 99 102 92 76 81 90 68 85 89 115 126 122 132 141 147 152 155 153 152 154 156 159 162 167 167 165 163 161 160 159 160 156 146 131 123 123 123 124 119 114 112 111 110 111 111 107 102 98 101 108 109 107 104 103 102 101 99 97 93 91 90 88 85 83 84 85 88 95 98 104 117 125
267 273 289 319 318 177 352 304 185 208 231 236 257 266 271 279 271 323 47 122 124 81 92 82 70 71 92 94 91 96 119 119 108 111 119 129 136 140 140 143 148 151 147 148 153 155 156 158 164 163 161 161 159 160 159 159 153 140 128 123 125 126 124 114 108 107 107 109 112 114 111 107 103 102 107 110 111 110 108 106 103 100 97 95 95 93 89 85 84 84 79 81 93 103 108 120 133
276 271 272 286 323 206 168 225 209 202 223 226 242 266 264 266 271 73 309 297 82 63 48 84 86 57 72 92 108 105 128 128 134 131 100 119 139 143 140 139 141 145 142 144 152 153 152 154 160 160 159 159 157 159 159 156 148 135 126 123 125 128 122 110 105 104 106 112 116 118 115 112 109 106 108 111 114 116 114 110 107 104 102 100 99 100 97 88 86 85 81 80 90 108 109 121 138
282 287 271 243 253 291 219 241 234 225 230 225 234 265 270 280 282 151 231 355 77 62 52 78 106 93 69 69 50 96 152 139 133 132 114 125 138 139 136 133 134 138 139 144 151 149 147 153 158 157 157 156 156 157 155 151 142 130 125 122 125 131 126 114 107 108 112 117 121 123 121 118 117 115 115 114 114 116 115 112 110 107 102 95 91 100 95 81 81 84 84 84 90 107 107 118 138
277 302 285 209 264 288 204 240 244 252 248 243 252 262 274 287 293 113 336 20 52 25 69 96 112 99 84 105 44 42 127 133 127 131 130 133 136 133 133 132 133 135 141 147 146 145 147 152 155 155 155 154 154 153 150 142 134 127 124 122 126 134 132 121 116 123 127 126 128 130 128 125 125 123 119 118 114 114 115 112 109 104 95 82 80 91 86 81 84 89 92 95 94 100 105 118 136
257 267 283 133 256 242 193 244 245 252 261 264 269 266 272 272 187 69 344 339 3 81 105 126 112 91 67 86 73 40 83 112 121 130 134 135 135 133 134 132 132 135 143 146 139 142 147 151 152 152 151 150 149 147 143 134 129 124 121 125 131 139 139 133 130 135 137 135 134 133 132 131 131 128 125 126 120 118 116 109 101 90 77 70 81 84 78 78 76 79 78 82 91 99 111 122 137
249 229 264 178 216 256 227 241 235 240 247 254 260 258 266 259 184 193 183 358 42 116 181 160 109 101 98 81 91 62 79 108 120 129 135 136 137 134 135 136 136 136 140 143 140 145 148 150 149 147 144 142 141 140 139 130 127 120 116 124 132 143 145 144 143 143 141 137 136 136 138 137 136 135 135 133 127 123 119 110 93 75 70 75 86 84 75 73 67 66 64 70 85 105 121 129 137
239 209 227 227 212 260 255 253 245 242 239 238 245 241 252 251 182 203 183 111 341 328 210 117 99 114 119 97 98 103 105 119 123 127 135 137 139 137 138 140 139 139 141 143 142 144 145 147 145 142 136 134 137 139 136 127 125 120 117 122 128 140 148 153 152 148 144 136 137 141 144 143 142 144 142 140 135 130 125 116 90 77 84 90 90 85 77 70 66 61 58 69 88 117 131 135 139
234 226 188 243 240 244 246 258 258 253 251 247 247 240 241 233 164 184 146 134 247 278 167 99 101 117 106 103 105 123 125 127 129 132 137 138 139 140 143 142 142 144 145 142 140 141 141 141 140 138 133 134 139 137 131 126 126 123 122 124 127 133 140 152 156 154 148 139 140 145 147 147 148 151 152 151 149 144 140 130 99 97 104 102 94 91 83 69 65 59 58 73 98 128 138 140 140
225 252 158 221 224 228 243 253 262 262 264 260 256 252 228 186 153 146 121 152 186 244 207 123 124 121 100 110 119 134 133 134 138 140 141 140 140 140 142 139 140 145 144 139 137 139 138 137 138 138 138 138 135 131 128 126 125 124 125 126 126 127 130 143 157 160 154 147 148 149 151 153 155 159 163 162 161 162 162 150 118 120 120 107 100 99 94 78 67 59 60 77 104 136 142 143 142
210 243 171 219 216 220 246 251 265 269 270 264 259 258 162 137 139 139 108 9 329 271 221 139 132 110 104 124 119 145 143 140 143 145 145 142 142 135 134 135 135 137 138 138 136 136 134 133 136 136 137 134 129 129 127 126 125 128 130 131 133 135 139 146 156 163 160 156 153 153 155 155 160 168 170 172 174 175 177 166 138 140 135 116 113 109 105 94 76 65 65 80 109 140 147 144 142
208 237 192 238 241 229 239 244 259 265 272 272 275 304 102 115 122 124 95 35 301 269 100 121 125 99 105 130 127 171 149 145 146 147 145 143 143 129 130 131 127 129 131 132 129 130 130 130 134 132 133 132 130 130 130 131 130 134 139 144 151 155 155 153 153 157 162 164 160 157 159 159 168 176 178 181 183 183 184 179 160 157 150 132 127 122 121 112 91 76 70 82 113 144 152 147 142
212 242 216 248 260 258 252 247 254 260 272 263 277 358 46 77 98 86 104 120 281 276 80 102 117 103 144 163 161 181 150 149 148 144 144 144 140 126 130 127 123 127 126 125 123 123 124 130 135 135 137 135 135 135 135 139 138 143 152 159 167 171 166 158 149 148 158 167 167 161 164 170 177 182 186 190 192 193 192 187 174 169 162 151 148 140 137 133 115 93 78 83 112 145 154 149 142
212 229 239 254 252 260 256 257 265 264 264 248 258 41 50 26 80 72 161 158 31 16 62 73 351 119 160 168 156 152 145 148 147 144 141 140 134 124 127 125 123 127 123 119 118 119 126 137 140 138 139 138 139 139 141 146 149 152 161 169 175 177 169 159 150 146 152 158 161 163 170 180 188 191 194 199 202 205 200 195 186 179 174 164 161 160 153 148 140 112 95 92 108 141 156 153 144
218 215 236 258 248 249 249 251 254 261 275 279 308 10 131 58 103 161 225 110 78 60 58 65 32 96 137 136 135 137 140 147 145 141 135 135 131 120 124 125 124 122 118 118 119 129 143 144 138 136 136 137 141 146 150 153 157 161 166 174 176 176 167 158 156 156 154 151 156 164 170 177 184 189 196 204 206 207 203 196 189 186 183 176 170 170 168 161 155 140 118 107 111 134 149 148 141
220 194 218 243 240 241 249 249 253 287 348 350 337 343 54 139 214 178 166 95 93 82 66 76 66 74 94 107 121 129 138 142 140 138 131 130 126 121 125 121 104 88 89 108 129 147 148 135 132 135 136 140 147 151 157 158 162 166 169 174 174 172 164 159 162 164 163 159 160 157 158 163 168 178 188 195 190 198 206 195 185 188 189 185 178 174 174 170 165 159 145 128 125 135 142 140 135
220 186 205 227 238 252 257 258 273 311 3 20 346 324 330 307 275 163 163 165 111 98 83 87 84 83 90 103 115 125 135 136 138 134 128 129 127 117 99 81 72 75 83 109 141 151 138 133 138 143 145 149 151 150 156 160 163 165 167 171 171 167 162 163 169 171 172 166 162 157 157 166 177 189 194 199 188 185 205 201 185 185 191 189 183 180 178 175 172 173 168 153 142 144 145 139 134
221 202 213 229 231 258 267 267 287 308 316 42 12 330 332 317 307 161 178 197 128 126 127 105 102 107 107 111 117 126 131 135 138 130 133 133 106 89 86 89 91 100 117 133 153 154 140 144 150 150 151 152 152 148 153 159 161 165 166 169 167 162 161 168 174 176 177 171 164 164 167 181 200 203 197 205 209 190 192 209 198 187 189 190 187 185 184 182 180 181 181 174 160 156 155 147 141
213 201 222 247 233 246 260 265 282 289 295 78 31 351 336 307 310 253 179 205 161 149 150 135 134 133 127 128 127 129 132 135 135 135 139 114 90 88 93 109 119 131 143 149 160 154 145 150 153 152 152 151 151 147 151 158 159 163 166 169 168 164 165 171 177 176 176 179 175 172 180 202 215 212 199 197 209 212 199 207 213 202 194 192 192 191 190 190 190 190 191 189 176 167 165 161 162
224 214 216 241 248 248 257 271 289 284 58 87 8 352 339 323 327 326 48 173 235 155 148 140 139 138 133 134 129 130 135 125 128 140 114 94 94 100 105 119 128 141 147 153 160 153 150 155 155 154 154 153 153 149 154 160 159 163 166 170 173 173 173 174 179 178 175 185 191 186 195 216 225 220 207 201 206 214 215 213 219 220 213 203 197 196 198 197 196 196 199 200 190 183 184 185 194
226 237 218 230 242 253 272 287 304 319 46 58 332 340 345 345 329 338 63 69 76 113 125 124 126 129 128 129 128 133 135 127 143 130 99 98 105 114 130 136 133 140 144 152 157 154 157 159 158 159 158 158 157 156 160 164 167 171 171 172 176 177 179 182 184 182 179 186 195 195 202 219 228 227 214 210 210 210 217 223 221 222 225 221 211 203 202 204 203 201 205 209 206 204 207 211 223
210 233 237 240 241 248 261 268 289 16 54 13 335 340 340 329 311 10 84 95 90 97 107 108 111 117 121 124 128 132 133 143 137 106 103 109 114 121 133 131 127 135 140 147 153 158 164 163 162 162 161 160 161 163 165 169 176 180 179 179 181 180 184 189 188 186 185 188 195 198 204 216 227 229 221 219 222 220 218 223 225 214 209 218 225 220 210 208 207 206 209 215 219 218 221 227 241
210 215 236 253 259 259 254 258 268 74 71 9 326 313 307 294 297 351 107 117 107 105 106 108 110 110 116 121 127 132 134 141 108 98 106 115 119 122 121 115 122 131 137 147 155 163 167 165 166 164 161 161 164 169 172 174 179 184 185 185 187 186 190 196 192 190 191 193 198 202 208 215 223 228 229 227 229 228 222 221 227 221 206 204 218 227 220 213 212 216 215 217 229 229 231 236 252
212 210 222 240 257 269 266 265 252 192 138 142 245 269 275 292 303 327 124 124 117 117 114 116 117 113 119 124 130 133 129 126 104 102 112 121 122 117 112 116 124 131 141 152 160 166 168 167 169 168 164 164 168 173 177 179 181 188 190 191 194 192 196 201 199 197 197 199 203 210 215 219 225 230 234 234 232 232 226 224 226 225 222 213 211 221 221 217 219 226 221 217 231 239 240 244 258
224 214 217 226 238 256 264 276 261 218 163 158 200 246 245 261 279 285 132 128 123 121 119 118 115 114 124 128 131 124 116 106 100 104 109 119 120 115 118 124 128 138 148 154 162 166 168 168 170 172 171 169 170 174 177 180 184 190 192 195 198 198 202 207 207 206 204 205 209 214 220 224 229 233 237 238 236 237 235 233 230 225 223 219 216 217 217 216 218 224 223 217 227 245 250 253 260
259 240 234 231 230 243 256 277 278 265 202 160 190 265 247 234 239 249 154 134 131 127 124 118 112 112 120 124 120 108 102 94 94 102 107 112 116 117 125 130 133 144 150 155 162 162 164 168 170 174 176 175 170 171 176 179 184 188 190 195 197 199 205 207 208 210 211 213 213 214 221 227 232 235 239 242 239 240 243 239 232 226 223 220 220 219 220 219 217 220 222 218 223 244 255 255 254
268 258 255 247 236 243 253 262 253 238 211 164 172 273 259 235 231 229 161 140 139 132 126 120 118 116 120 118 108 101 93 92 96 106 117 119 118 119 126 133 138 144 150 156 158 157 159 165 171 174 179 180 172 173 177 177 180 181 181 185 192 197 199 202 205 210 214 217 217 217 223 228 232 235 239 244 242 241 243 240 232 226 223 221 223 223 222 224 221 220 222 223 227 239 254 254 248
274 268 254 244 241 250 244 244 243 224 188 171 170 232 257 245 233 222 164 147 145 135 129 125 124 123 125 115 98 95 93 97 108 120 124 121 114 117 125 134 139 142 149 155 155 157 158 158 164 168 175 180 172 174 175 170 173 174 170 170 181 191 193 197 202 205 209 213 216 219 223 226 230 235 239 242 242 239 239 242 234 224 220 222 226 225 224 226 226 228 226 227 232 236 249 254 247
285 301 293 228 204 246 233 215 228 230 196 181 177 206 253 251 236 226 179 154 147 135 133 128 129 132 126 112 98 94 99 109 122 126 121 111 110 120 126 128 135 145 149 151 153 155 157 157 157 158 166 173 170 172 171 166 167 168 168 171 176 183 190 199 204 207 211 215 218 220 223 227 233 239 241 239 239 238 239 242 233 224 222 224 228 228 228 227 228 232 227 227 237 237 244 252 249
216 257 289 258 205 270 274 221 205 212 215 188 179 199 249 254 242 228 194 155 141 131 136 131 129 133 124 110 101 101 110 114 120 122 114 109 116 126 128 124 127 144 150 149 152 151 154 158 158 157 160 166 167 168 169 166 163 165 170 173 175 179 190 201 208 216 222 225 227 227 228 232 238 242 245 241 240 239 237 236 231 228 229 230 233 233 232 230 228 227 219 224 240 238 239 246 248
213 187 224 245 211 221 272 252 205 201 216 197 183 183 233 246 241 220 192 149 137 133 138 135 132 135 128 118 113 118 120 113 114 114 108 110 115 114 117 119 117 136 150 149 149 150 153 157 158 158 158 163 163 160 161 160 160 167 171 173 178 183 191 203 210 216 220 225 232 232 231 236 239 241 242 242 242 238 234 232 230 230 230 231 235 234 233 232 228 224 219 224 235 233 234 239 244
275 207 206 236 227 195 223 251 212 193 201 210 197 198 234 240 235 220 189 147 137 136 141 140 138 139 134 127 126 128 121 119 122 112 106 104 105 105 108 113 113 123 133 138 143 146 149 153 156 154 153 160 159 156 156 158 164 169 172 176 182 186 196 209 215 218 219 226 236 237 236 238 239 238 237 239 240 239 237 233 228 229 227 226 229 229 231 231 228 227 226 228 230 229 231 231 238
234 215 197 224 242 229 224 239 199 180 197 215 198 210 240 244 246 241 183 151 138 140 146 143 144 142 133 127 127 128 121 122 120 109 108 106 104 104 106 109 111 112 113 119 130 135 135 137 146 149 147 152 154 154 154 157 167 174 177 180 185 194 204 210 214 220 222 224 232 238 242 243 240 237 234 235 238 240 241 234 226 226 226 225 227 227 226 225 227 230 232 233 231 230 232 229 228
230 219 196 199 224 241 240 241 190 170 189 211 199 207 229 239 252 274 184 155 139 140 142 136 142 133 123 124 125 126 122 120 119 115 114 114 111 106 109 113 109 108 109 113 120 127 131 131 134 140 145 149 151 152 153 158 171 178 182 184 191 202 207 209 212 218 222 224 226 232 240 244 244 241 238 237 240 243 243 235 226 224 225 225 228 230 227 225 227 231 236 238 234 232 234 232 231
244 236 217 205 209 230 246 248 189 168 177 206 214 211 216 231 242 252 209 158 132 137 136 129 133 122 119 125 122 121 118 113 120 120 117 116 113 108 111 114 109 108 112 116 119 123 128 130 129 130 139 147 151 154 156 163 174 180 185 192 202 211 213 213 213 215 221 226 227 229 236 242 244 244 243 241 242 243 244 236 226 224 226 226 230 235 238 237 236 237 241 241 237 236 237 233 230
245 248 251 234 219 222 241 242 180 167 171 203 216 213 211 227 227 221 218 141 129 136 132 128 125 119 122 122 119 120 112 107 114 117 115 113 112 109 111 111 109 114 119 121 124 126 126 128 130 130 135 144 151 157 164 172 178 181 183 190 201 215 223 221 220 222 226 231 231 229 233 241 243 243 243 244 245 245 243 236 227 225 226 228 231 236 241 244 241 239 241 243 241 239 239 233 225
243 250 257 257 252 231 243 235 173 171 177 199 210 210 213 228 224 209 203 141 136 138 130 131 126 122 127 124 125 124 113 112 111 113 113 112 112 113 115 115 115 119 121 121 127 131 129 127 130 134 139 148 153 159 168 171 170 171 175 183 191 206 227 232 235 240 239 238 239 236 236 243 246 245 242 242 245 246 243 237 231 228 228 231 232 233 238 241 240 238 239 242 241 239 238 232 226
242 242 234 250 257 242 250 224 172 179 180 177 195 204 221 242 237 195 175 134 124 125 119 122 123 124 131 129 128 127 124 124 117 114 114 111 109 108 108 109 112 113 113 118 125 128 129 131 135 140 143 145 146 150 155 156 156 159 167 183 199 211 229 241 243 246 246 245 249 248 242 245 247 245 243 240 242 244 242 239 236 233 235 238 238 237 237 238 238 237 237 238 234 230 230 228 227
240 235 226 243 251 249 258 214 168 181 194 169 172 180 248 243 179 174 155 113 103 108 106 107 110 116 120 119 120 122 124 124 120 116 113 111 106 100 98 99 100 100 102 113 122 124 127 130 132 132 132 127 128 137 139 137 141 145 153 171 202 224 241 252 251 246 247 251 255 254 248 248 246 244 247 246 245 246 241 239 239 237 239 242 242 241 240 238 238 238 238 237 233 227 223 224 224
241 235 227 238 248 257 270 238 140 158 220 207 150 152 262 261 145 164 141 104 104 107 107 110 110 112 114 114 115 114 108 104 107 107 102 105 103 99 98 100 100 97 99 111 119 123 123 121 120 117 115 115 117 124 125 123 124 128 149 179 204 235 253 261 261 256 253 255 259 258 254 252 247 246 252 251 248 249 245 242 240 239 243 246 246 246 244 240 238 238 238 238 237 233 227 225 225
233 230 222 236 247 260 272 269 136 147 210 212 148 142 238 315 135 165 121 107 113 114 115 119 118 117 119 120 119 115 105 99 99 98 96 99 102 102 101 102 104 102 105 114 118 119 116 115 119 115 110 111 108 110 117 122 127 136 167 198 225 267 285 287 282 283 275 264 261 259 256 256 250 247 253 255 252 251 249 246 244 244 247 252 252 249 247 244 239 238 238 238 239 237 230 225 225
223 225 222 236 241 247 263 272 226 174 185 208 168 129 127 251 235 186 120 113 114 115 118 121 119 116 114 115 117 112 106 101 98 97 94 95 97 96 92 89 93 98 103 109 113 116 119 119 117 114 111 106 97 97 105 118 133 138 154 233 292 304 309 312 312 306 292 273 264 260 259 259 253 245 247 253 257 256 252 248 246 247 250 253 254 252 251 250 243 238 238 238 239 236 231 225 223
212 223 232 237 234 236 250 268 238 165 147 216 207 138 114 214 236 188 133 125 119 118 121 119 116 114 109 105 104 101 97 90 89 90 87 86 85 85 84 82 82 85 85 85 89 95 103 110 109 106 101 94 89 84 77 75 77 45 355 317 313 313 315 323 330 327 311 288 274 269 267 265 257 246 243 248 252 255 255 255 253 249 250 253 255 255 256 256 251 243 239 237 235 234 231 228 225
198 224 245 247 240 238 230 249 261 139 138 204 216 168 134 214 226 178 166 144 125 120 119 116 115 110 102 98 98 96 92 88 87 88 84 83 85 85 86 84 81 79 78 78 79 81 83 83 85 85 77 72 73 67 59 57 50 36 18 358 346 341 340 343 344 337 328 315 296 284 281 280 274 260 251 251 252 250 250 257 260 255 253 255 254 256 259 259 257 252 247 241 236 234 233 230 228
177 214 250 270 262 245 181 224 267 77 181 218 204 175 158 209 210 183 198 147 132 131 124 120 117 108 103 99 99 97 94 93 91 91 89 87 87 87 85 84 80 77 76 75 72 72 73 66 63 65 60 54 51 41 38 44 42 35 26 20 18 13 8 7 4 356 347 335 317 301 292 289 287 281 272 267 263 258 252 254 257 255 257 258 255 257 259 258 257 255 251 246 241 238 237 236 234
174 202 231 268 296 306 113 336 81 116 253 242 199 172 164 193 221 251 287 134 135 138 137 132 127 120 115 110 104 101 99 98 93 91 89 86 85 85 84 83 80 76 72 68 66 63 63 57 51 51 48 38 31 26 28 32 30 28 24 22 21 19 16 13 10 6 0 353 341 326 314 303 300 299 294 287 278 270 265 262 261 259 258 258 258 259 258 256 257 255 250 247 245 241 238 239 239
186 198 188 181 270 273 186 221 133 167 235 233 194 174 163 163 223 298 59 123 133 131 131 131 128 124 119 114 108 102 98 95 92 90 88 85 83 82 83 80 75 72 67 62 60 55 51 48 42 43 44 37 29 25 27 28 25 24 23 21 18 15 14 13 9 4 0 356 351 343 335 327 321 318 313 306 298 289 282 278 275 268 260 256 258 258 257 258 256 254 255 253 249 247 244 241 239
192 201 164 156 198 204 202 205 161 192 226 208 184 173 181 135 40 340 81 106 111 111 116 119 118 117 113 110 106 100 97 94 92 92 88 82 78 78 79 78 74 70 65 58 53 46 43 41 37 38 40 36 32 34 38 33 24 20 19 19 19 16 13 11 6 0 355 350 348 345 341 336 331 325 320 315 311 306 300 294 287 279 269 263 261 260 263 264 259 257 262 264 260 256 253 247 243
200 204 168 153 175 167 188 173 151 210 208 185 174 168 196 130 60 8 80 97 95 99 104 104 105 107 106 105 105 102 98 95 92 90 84 81 83 82 78 76 76 72 67 63 54 47 46 42 35 35 36 32 30 34 39 33 23 23 28 27 22 16 11 8 4 358 354 350 347 343 341 338 334 331 325 319 313 309 303 299 293 286 282 278 275 273 272 266 261 262 264 265 265 260 254 249 244
214 197 173 188 195 155 164 169 155 176 171 156 158 128 55 103 74 42 77 95 99 104 107 108 108 108 109 108 106 106 100 97 95 90 89 92 91 86 80 79 80 78 78 77 60 47 54 49 37 35 35 35 36 35 36 35 32 33 34 27 17 11 9 7 3 0 356 352 348 346 343 339 336 333 329 322 315 310 305 301 296 290 288 289 287 284 280 268 264 268 266 261 261 258 254 253 249
197 200 193 198 200 161 144 183 148 103 115 190 157 114 106 110 80 66 88 99 108 114 113 113 115 114 112 112 111 109 106 104 102 100 99 94 89 89 89 87 87 90 94 94 79 66 70 57 40 39 36 36 41 39 36 35 33 28 23 19 16 15 13 8 4 1 356 350 349 351 348 345 341 335 331 326 319 312 307 302 298 295 294 296 297 292 286 278 272 273 269 263 259 256 255 254 251
164 194 208 178 199 214 148 147 114 89 125 223 144 140 147 158 159 131 130 121 120 124 119 116 119 118 117 118 117 113 116 116 108 100 91 85 90 96 98 88 80 89 94 91 88 81 76 62 48 48 44 39 42 41 36 31 29 26 20 18 19 17 14 12 9 4 359 355 353 352 350 348 346 342 337 332 324 317 310 304 299 299 296 295 298 298 292 284 276 273 269 264 258 253 251 250 246
208 185 185 156 184 226 186 153 161 142 146 117 105 149 171 183 176 159 158 155 144 136 128 126 127 126 125 124 121 120 123 117 103 97 96 98 97 98 102 97 90 109 112 104 103 85 70 64 57 57 51 43 42 43 36 33 35 31 26 25 23 18 15 15 13 7 5 4 359 355 353 350 347 345 341 336 331 324 316 305 298 297 295 293 292 294 292 283 276 274 268 264 262 254 249 248 243
246 212 185 181 179 185 174 176 170 148 153 147 124 164 227 229 180 171 170 162 153 144 136 135 133 130 129 127 125 124 119 106 102 111 125 120 107 101 109 111 108 126 135 122 108 93 82 79 71 63 54 43 39 39 33 33 38 34 33 33 27 20 17 17 17 14 13 14 10 4 360 355 349 346 343 337 331 329 324 313 304 300 295 292 291 291 289 281 272 269 262 259 263 256 246 245 241
233 220 193 200 193 161 165 214 182 143 149 155 136 190 247 269 180 176 167 154 148 142 134 133 132 130 129 125 121 116 111 111 122 136 132 117 112 106 104 106 106 118 126 120 112 104 97 86 73 61 51 42 35 31 30 33 40 41 40 37 29 23 20 19 16 10 6 9 12 9 1 355 351 347 345 340 332 328 326 320 313 306 298 295 294 295 294 285 274 269 263 259 260 253 244 241 236
216 214 195 189 173 148 146 239 212 151 156 158 144 186 244 317 275 167 144 135 134 126 124 126 128 126 119 112 112 111 114 125 133 134 121 114 116 113 109 113 111 97 103 105 93 81 75 71 64 53 46 43 29 21 25 34 42 45 41 37 32 25 21 18 14 12 11 12 12 7 359 352 349 345 342 341 337 332 325 320 318 312 303 298 298 300 300 292 282 276 270 261 254 248 243 239 235